#timestamp,LO_Frequency,Hit,StdDev 
1628013615.1,286047000.5,N
1628013635.9,286047000.5,N
1628013655.7,286047001.0,N
1628013675.5,286047002.6,N
1628013695.4,286047002.4,N
1628013715.2,286047002.6,N
1628013735.0,286047002.4,N
1628013735.9,286047002.4,N
1628013755.8,286047002.3,N
1628013775.6,286047001.7,N
1628013795.5,286047001.6,N
1628013815.3,286047001.9,N
1628013835.1,286047002.5,N
1628013855.9,286047002.3,N
1628013875.7,286047001.6,N
1628013895.5,286047002.5,N
1628013915.4,286047004.1,Y
1628013935.2,286047002.3,P
1628013955.1,286047002.2,P
1628013956.0,286047002.2,P
1628013975.8,286047002.7,Y
1628013995.6,286047001.2,P
1628014015.5,286047001.1,N
1628014035.3,286047001.2,N
1628014055.2,286047000.4,N
1628014075.9,286046998.6,N
1628014095.7,286046998.3,N
1628014115.6,286046999.0,N
1628014135.4,286046996.6,N
1628014155.3,286046997.6,N
1628014175.1,286046997.7,N
1628014176.0,286046997.7,N
1628014195.8,286046997.3,N
1628014215.7,286046998.0,N
1628014235.5,286046997.2,N
1628014255.3,286046999.1,N
1628014275.2,286047001.1,N
1628014295.0,286047001.0,N
1628014295.9,286047001.0,N
1628014315.8,286046998.7,N
1628014335.6,286047001.1,N
1628014355.4,286046998.8,N
1628014375.3,286046996.9,N
1628014395.1,286046997.3,N
1628014415.9,286046994.9,Y
1628014435.7,286046996.8,P
1628014455.5,286046997.8,N
1628014475.4,286046997.8,N
1628014495.2,286046997.7,N
1628014515.0,286046998.0,N
1628014516.0,286046998.0,N
1628014535.8,286046998.0,Y
1628014555.6,286047001.1,P
1628014575.5,286047000.8,N
1628014595.3,286047001.0,N
1628014615.1,286046998.3,N
1628014635.9,286046999.3,N
1628014655.7,286047001.2,N
1628014675.6,286046999.0,N
1628014695.4,286046998.3,N
1628014715.2,286046998.3,N
1628014735.1,286047000.5,N
1628014736.0,286047000.5,N
1628014755.8,286046999.9,N
1628014775.6,286047002.5,N
1628014795.5,286047001.4,N
1628014815.3,286047003.5,N
1628014835.2,286047003.3,N
1628014855.9,286047001.3,N
1628014875.7,286047003.6,N
1628014895.6,286047003.4,N
1628014915.4,286047003.5,N
1628014935.2,286047004.2,N
1628014955.1,286047001.4,N
1628014956.0,286047001.4,N
1628014975.8,286047002.5,N
1628014995.7,286047001.9,N
1628015015.5,286047002.5,N
1628015035.3,286047002.6,N
1628015055.2,286047000.6,N
1628015075.0,286047000.8,N
1628015075.9,286047000.8,N
1628015095.7,286047001.1,N
1628015115.6,286046998.2,N
1628015135.4,286046998.9,N
1628015155.3,286046999.0,N
1628015175.1,286046996.5,N
1628015176.0,286046996.5,N
1628015195.8,286046999.5,N
1628015215.7,286046999.5,N
1628015235.5,286046999.5,N
1628015255.3,286046997.3,N
1628015275.2,286046997.7,N
1628015295.0,286046996.9,N
1628015295.9,286046996.9,N
1628015315.8,286046996.6,N
1628015335.6,286046997.4,N
1628015355.4,286046997.8,N
1628015375.3,286046996.6,N
1628015395.1,286046996.5,N
1628015415.8,286046999.6,N
1628015435.7,286046996.5,N
1628015455.5,286046997.7,N
1628015475.4,286046996.5,N
1628015495.2,286046996.9,N
1628015515.0,286046997.7,N
1628015515.9,286046997.7,N
1628015535.8,286046997.6,N
1628015555.6,286046994.9,Y
1628015575.4,286046999.4,P
1628015595.3,286046998.7,N
1628015615.1,286046997.1,P
1628015635.9,286046999.4,N
1628015655.7,286046998.3,N
1628015675.5,286047001.1,N
1628015695.4,286047001.2,N
1628015715.2,286046998.1,N
1628015735.0,286046998.4,N
1628015735.9,286046998.4,N
1628015755.8,286047000.7,N
1628015775.6,286046998.2,N
1628015795.5,286047000.9,N
1628015815.3,286046998.6,N
1628015865.2,286046998.9,E
1628015875.1,286047000.6,N
1628015876.0,286047000.6,P
1628015895.8,286046999.9,P
1628015915.7,286047000.4,N
1628015935.5,286047000.7,N
1628015955.3,286047000.2,N
1628015975.2,286047002.3,Y
1628015995.9,286047000.0,P
1628016015.7,286047000.3,N
1628016035.6,286047002.7,P
1628016055.4,286046999.9,N
1628016075.3,286047000.0,N
1628016095.1,286047000.6,N
1628016096.0,286047000.6,N
1628016115.8,286046999.8,N
1628016135.7,286046999.9,N
1628016155.5,286047002.8,Y
1628016175.3,286047002.5,P
1628016195.2,286047002.5,N
1628016215.0,286047001.4,N
1628016215.9,286047001.4,N
1628016235.8,286047001.7,N
1628016255.6,286047001.6,N
1628016275.4,286047002.1,Y
1628016295.3,286046998.2,P
1628016315.1,286046998.9,N
1628016335.9,286047001.0,N
1628016355.7,286046998.3,N
1628016375.5,286047001.1,N
1628016395.4,286047000.8,N
1628016415.2,286047000.3,N
1628016435.0,286046998.1,N
1628016435.9,286046998.1,N
1628016455.8,286046998.6,N
1628016475.6,286046998.5,N
1628016495.5,286046999.0,N
1628016515.3,286047001.0,N
1628016535.1,286047000.9,N
1628016555.9,286046998.2,N
1628016575.7,286046998.2,N
1628016595.5,286047000.2,N
1628016615.4,286047001.0,N
1628016635.2,286047000.8,N
1628016655.1,286046999.8,N
1628016656.0,286046999.8,N
1628016675.8,286047000.8,N
1628016695.6,286047000.8,N
1628016715.5,286046998.1,N
1628016735.3,286046999.9,N
1628016755.1,286047001.2,N
1628016775.9,286047001.1,N
1628016795.7,286046998.5,N
1628016815.6,286047000.7,N
1628016835.4,286046998.6,N
1628016855.2,286047000.7,N
1628016875.1,286046998.5,N
1628016876.0,286046998.5,N
1628016895.8,286047000.8,N
1628016915.6,286047000.0,N
1628016935.5,286047002.8,N
1628016955.3,286046999.9,N
1628016975.2,286047001.1,N
1628016995.9,286047000.8,N
1628017015.7,286046998.3,N
1628017035.6,286047000.6,N
1628017055.4,286047001.2,N
1628017075.2,286047000.0,N
1628017095.1,286046999.7,N
1628017096.0,286046999.7,N
1628017115.8,286047004.4,Y
1628017135.7,286047001.3,P
1628017155.5,286047002.1,P
1628017175.3,286047001.3,N
1628017195.2,286047002.2,N
